#datint,netname,site,siteID,timestamp,IntT,BattV,AirT2,AirT,AirT_Avg,AirT_Max,AirT_Min,RH_Avg,RH_Max,RH_Min,EA_Avg,Td_Avg,Td_Max,Td_Min,WindS_Smp,WindS_Avg,WindD_Avg,WindD_SD,WindS_Max,ETo,ETr,SoilT4,SoilT8,SoilVWC8,SolarW_Avg,wetstate_Avg,wetT_Avg,Precip_accum,Precip_WPG,Precip_TB
15min,AgWx,beryljct,423,10JAN2018:00:00:00,35.6,12.67,35.0,35.2,35.1,35.8,34.1,82,82,81,0.567,30.1,30.7,29.1,4.187,3.8,160,36,6.8,0.00007,0.00010,38.2,39.5,19,0,0,35.8,11.84,0.00,0.00
15min,AgWx,beryljct,423,10JAN2018:00:15:00,35.6,12.67,35.6,35.8,36.0,36.4,35.1,82,82,81,0.581,31.0,31.4,30.0,4.384,3.7,178,9.6,6.3,0.00008,0.00010,37.9,39.4,19,0,0,35.9,11.84,0.00,0.00
15min,AgWx,beryljct,423,10JAN2018:00:30:00,35.5,12.67,36.4,36.6,36.1,36.7,35.6,82,82,82,0.603,31.1,31.7,30.6,5.327,5.1,195,18,7.3,0.00009,0.00011,37.8,39.4,19,0,0,35.8,11.84,0.00,0.00
15min,AgWx,beryljct,423,10JAN2018:00:45:00,35.7,12.66,36.7,37.1,36.9,37.3,36.4,82,83,82,0.615,32.0,32.4,31.6,6.467,5.2,180,18,7.2,0.00009,0.00012,37.7,39.4,19,0,0,36.6,11.84,0.00,0.00
15min,AgWx,beryljct,423,10JAN2018:01:00:00,36.0,12.67,36.9,37.2,37.1,37.4,36.8,82,83,82,0.619,32.2,32.5,31.9,7.037,7.6,199,14,9.8,0.00011,0.00013,37.5,39.4,19,0,0,37.4,11.84,0.00,0.00
15min,AgWx,beryljct,423,10JAN2018:01:15:00,36.4,12.67,37.5,37.8,37.6,37.8,37.1,83,83,82,0.635,32.7,33.0,32.2,5.722,7.0,192,14,9.4,0.00011,0.00013,37.5,39.4,19,0,0,38.0,11.84,0.00,0.00
15min,AgWx,beryljct,423,10JAN2018:01:30:00,36.7,12.67,38.1,38.0,37.7,38.0,37.4,83,83,82,0.638,32.8,33.1,32.5,5.722,4.9,188,13,6.4,0.00009,0.00011,37.4,39.4,19,0,0,38.2,11.84,0.00,0.00
15min,AgWx,beryljct,423,10JAN2018:01:45:00,37.0,12.67,38.7,39.0,38.9,39.4,38.3,83,83,82,0.669,34.2,34.7,33.4,3.529,4.4,211,20,7.7,0.00008,0.00011,37.3,39.3,19,0,0,39.2,11.84,0.00,0.00
15min,AgWx,beryljct,423,10JAN2018:02:00:00,37.4,12.67,38.9,39.1,39.1,39.3,38.9,83,83,83,0.670,34.3,34.6,34.1,7.081,4.9,224,18,7.1,0.00009,0.00012,37.3,39.3,19,0,0,39.3,11.84,0.00,0.00
15min,AgWx,beryljct,423,10JAN2018:02:15:00,37.7,12.66,39.1,39.2,39.2,39.4,38.9,83,83,83,0.674,34.5,34.7,34.1,6.379,6.5,236,12,8.5,0.00010,0.00013,37.3,39.3,19,0,0,39.6,11.84,0.00,0.00
15min,AgWx,beryljct,423,10JAN2018:02:30:00,38.0,12.67,38.3,38.5,38.9,39.4,38.5,83,83,82,0.650,34.1,34.7,33.5,1.6,3.8,263,16,7.3,0.00008,0.00011,37.3,39.2,19,0,0,39.4,11.84,0.00,0.00
15min,AgWx,beryljct,423,10JAN2018:02:45:00,38.2,12.67,38.2,38.5,38.4,38.6,38.1,82,82,82,0.647,33.5,33.7,33.2,3.025,2.2,239,9.2,4.1,0.00005,0.00008,37.3,39.2,19,0,32,38.7,11.84,0.00,0.00
15min,AgWx,beryljct,423,10JAN2018:03:00:00,38.3,12.67,38.6,38.8,38.6,38.9,38.3,82,83,82,0.659,33.7,34.0,33.3,3.771,4.1,227,8.6,6.2,0.00008,0.00011,37.3,39.2,19,0,100,38.6,11.85,0.00,0.00
15min,AgWx,beryljct,423,10JAN2018:03:15:00,38.4,12.67,39.0,39.1,39.0,39.2,38.6,83,83,82,0.671,34.2,34.5,33.7,6.752,5.9,231,13,8.9,0.00010,0.00013,37.3,39.2,19,0,18,38.7,11.85,0.00,0.00
15min,AgWx,beryljct,423,10JAN2018:03:30:00,38.4,12.67,38.8,39.0,39.1,39.3,38.9,83,83,83,0.668,34.4,34.6,34.1,6.993,6.9,211,14,10.5,0.00011,0.00013,37.3,39.1,19,0,16,38.8,11.85,0.00,0.00
15min,AgWx,beryljct,423,10JAN2018:03:45:00,38.4,12.67,38.4,38.5,38.6,39.1,38.1,83,83,82,0.651,33.8,34.3,33.2,5.875,6.0,174,13,8.4,0.00010,0.00013,37.3,39.1,19,0,0,38.5,11.85,0.00,0.00
15min,AgWx,beryljct,423,10JAN2018:04:00:00,38.4,12.66,38.4,38.6,38.6,38.8,38.4,82,83,82,0.655,33.7,34.0,33.5,5.524,4.9,179,6.7,7.4,0.00009,0.00012,37.3,39.1,19,0,0,38.5,11.85,0.00,0.00
15min,AgWx,beryljct,423,10JAN2018:04:15:00,38.3,12.67,38.1,38.4,38.5,38.7,38.2,82,83,82,0.648,33.6,33.9,33.3,5.283,4.6,183,10,6.6,0.00009,0.00011,37.3,39.0,19,0,0,38.5,11.85,0.00,0.00
15min,AgWx,beryljct,423,10JAN2018:04:30:00,38.0,12.67,37.7,37.8,38.2,38.5,37.7,82,82,82,0.634,33.3,33.6,32.7,5.217,5.8,190,8.9,7.2,0.00010,0.00013,37.3,39.0,19,0,0,37.7,11.85,0.00,0.00
15min,AgWx,beryljct,423,10JAN2018:04:45:00,37.7,12.67,37.2,37.5,37.6,37.8,37.4,82,82,82,0.626,32.6,32.9,32.4,5.064,5.0,189,7.9,6.5,0.00009,0.00012,37.3,39.0,19,0,0,37.2,11.85,0.00,0.00
15min,AgWx,beryljct,423,10JAN2018:05:00:00,37.5,12.67,37.4,37.7,37.7,38.0,37.3,82,83,82,0.632,32.8,33.1,32.4,7.388,7.0,197,13,9.6,0.00011,0.00013,37.3,39.0,19,0,0,37.3,11.85,0.00,0.00
15min,AgWx,beryljct,423,10JAN2018:05:15:00,37.1,12.67,36.4,36.6,37.1,37.5,36.6,82,83,82,0.603,32.2,32.7,31.7,6.62,6.5,197,10,7.9,0.00010,0.00013,37.2,39.0,19,0,0,36.1,11.85,0.00,0.00
15min,AgWx,beryljct,423,10JAN2018:05:30:00,36.7,12.66,37.5,37.8,37.1,37.8,36.5,82,83,82,0.638,32.2,33.1,31.6,6.862,6.3,204,13,8.4,0.00010,0.00012,37.2,39.0,19,0,0,36.3,11.85,0.00,0.00
15min,AgWx,beryljct,423,10JAN2018:05:45:00,36.9,12.65,39.0,39.0,38.3,39.1,37.5,83,83,83,0.671,33.6,34.4,32.8,11.47,7.5,238,13,12.6,0.00011,0.00013,37.0,39.0,19,0,0,38.5,11.85,0.00,0.00
15min,AgWx,beryljct,423,10JAN2018:06:00:00,37.3,12.66,38.2,38.4,39.0,39.4,38.4,83,84,83,0.653,34.4,34.8,33.7,7.563,9.1,220,15,13.0,0.00012,0.00014,37.0,38.9,19,0,0,39.5,11.85,0.00,0.00
15min,AgWx,beryljct,423,10JAN2018:06:15:00,37.2,12.67,38.6,38.8,38.3,38.9,37.8,83,83,83,0.668,33.6,34.3,33.0,7.892,7.0,204,13,12.0,0.00010,0.00013,36.9,38.9,19,0,0,37.4,11.85,0.00,0.00
15min,AgWx,beryljct,423,10JAN2018:06:30:00,37.2,12.65,38.1,38.3,38.5,38.9,38.2,83,84,83,0.653,33.9,34.3,33.6,9.82,8.9,220,14,11.8,0.00011,0.00014,36.8,38.9,19,0,0,38.1,11.85,0.00,0.00
15min,AgWx,beryljct,423,10JAN2018:06:45:00,37.3,12.66,38.2,38.3,38.3,38.5,38.0,83,83,83,0.651,33.7,33.9,33.4,8.68,9.6,222,12,11.8,0.00012,0.00014,36.9,38.9,19,0,0,38.1,11.85,0.00,0.00
15min,AgWx,beryljct,423,10JAN2018:07:00:00,37.4,12.66,38.4,38.7,38.4,38.8,38.1,83,83,83,0.663,33.7,34.1,33.4,7.168,8.7,222,12,11.1,0.00011,0.00014,36.7,38.8,19,0,0,38.1,11.85,0.00,0.00
15min,AgWx,beryljct,423,10JAN2018:07:15:00,37.6,12.67,38.7,38.9,39.0,39.9,38.5,84,84,83,0.669,34.5,35.3,33.9,10.17,9.5,228,12,12.5,0.00024,0.00041,36.6,38.8,19,0,0,38.9,11.85,0.00,0.00
15min,AgWx,beryljct,423,10JAN2018:07:30:00,37.6,12.62,37.4,37.7,38.3,38.9,37.5,83,83,83,0.634,33.6,34.3,32.7,8.66,9.7,206,12,13.7,0.00024,0.00042,36.6,38.8,19,0,0,38.0,11.85,0.00,0.00
15min,AgWx,beryljct,423,10JAN2018:07:45:00,37.5,12.66,38.6,38.8,37.9,38.8,37.3,83,83,83,0.664,33.1,34.1,32.5,9.34,9.5,200,12,13.4,0.00024,0.00042,36.5,38.8,19,2,0,37.8,11.85,0.00,0.00
15min,AgWx,beryljct,423,10JAN2018:08:00:00,37.7,12.67,38.6,38.8,38.6,38.9,38.0,83,83,83,0.664,33.9,34.2,33.3,11.6,9.6,203,13,13.7,0.00027,0.00045,36.5,38.7,19,10,0,39.0,11.85,0.00,0.00
15min,AgWx,beryljct,423,10JAN2018:08:15:00,38.0,12.68,38.9,38.9,39.0,39.2,38.8,83,83,83,0.669,34.3,34.6,34.1,14.84,12.0,204,14,15.2,0.00034,0.00054,36.5,38.7,19,19,0,39.7,11.84,0.00,0.00
15min,AgWx,beryljct,423,10JAN2018:08:30:00,38.4,12.69,38.7,38.8,38.9,39.1,38.6,83,83,83,0.665,34.3,34.5,33.9,9.76,12.2,203,14,15.7,0.00039,0.00060,36.4,38.7,19,33,0,39.9,11.84,0.00,0.00
15min,AgWx,beryljct,423,10JAN2018:08:45:00,38.6,12.69,38.7,38.9,39.0,39.3,38.6,83,83,83,0.668,34.3,34.7,33.9,8.72,10.7,201,13,15.2,0.00038,0.00058,36.5,38.7,19,37,0,40.0,11.84,0.00,0.00
15min,AgWx,beryljct,423,10JAN2018:09:00:00,38.9,12.76,39.4,39.7,39.2,39.7,38.8,83,83,83,0.691,34.6,35.1,34.1,9.51,10.3,210,14,13.1,0.00046,0.00066,36.4,38.7,19,61,0,40.4,11.84,0.00,0.00
15min,AgWx,beryljct,423,10JAN2018:09:15:00,39.4,12.91,40.1,40.2,40.1,40.6,39.7,83,84,83,0.705,35.5,36.0,35.0,11.25,10.2,227,16,12.9,0.00060,0.00080,36.4,38.6,19,111,0,42.2,11.84,0.00,0.00
15min,AgWx,beryljct,423,10JAN2018:09:30:00,40.1,13,40.3,40.4,40.2,40.4,39.8,83,84,83,0.710,35.6,35.8,35.2,8.05,9.6,217,14,13.3,0.00066,0.00086,36.6,38.6,19,131,0,43.1,11.84,0.00,0.00
15min,AgWx,beryljct,423,10JAN2018:09:45:00,40.6,13.02,40.7,40.9,40.6,41.0,40.3,83,84,83,0.724,36.0,36.4,35.6,8.7,8.1,204,11,11.2,0.00065,0.00084,36.6,38.6,19,125,0,43.8,11.84,0.00,0.00
15min,AgWx,beryljct,423,10JAN2018:10:00:00,41.3,13.23,40.7,40.9,40.8,40.9,40.5,83,84,83,0.723,36.1,36.3,35.8,11.27,11.4,203,14,14.7,0.00080,0.00103,36.8,38.5,19,176,0,44.5,11.84,0.00,0.00
15min,AgWx,beryljct,423,10JAN2018:10:15:00,41.9,13.25,41.0,41.2,41.0,41.3,40.7,83,84,83,0.732,36.4,36.7,36.1,10.35,11.3,188,12,13.9,0.00079,0.00102,36.9,38.6,19,166,0,45.4,11.84,0.00,0.00
15min,AgWx,beryljct,423,10JAN2018:10:30:00,42.4,13.17,40.9,41.0,41.1,41.3,40.9,83,84,83,0.729,36.5,36.6,36.3,12.08,11.5,193,13,14.9,0.00073,0.00097,37.2,38.5,19,138,0,45.0,11.84,0.00,0.00
15min,AgWx,beryljct,423,10JAN2018:10:45:00,42.6,13.19,41.3,41.3,41.2,41.5,41.0,83,84,83,0.728,36.5,36.7,36.4,8.77,11.4,195,13,13.9,0.00077,0.00101,37.4,38.5,19,152,0,45.0,11.84,0.00,0.00
15min,AgWx,beryljct,423,10JAN2018:11:00:00,42.9,13.21,41.9,42.0,41.7,42.2,41.3,83,83,80,0.722,36.9,37.3,36.2,8.77,7.6,196,19,12.1,0.00081,0.00101,37.6,38.5,19,160,0,46.6,11.84,0.00,0.00
15min,AgWx,beryljct,423,10JAN2018:11:15:00,43.2,13.2,42.2,42.1,42.0,42.3,41.8,81,83,79,0.740,36.7,37.2,35.8,7.212,10.0,232,20,13.6,0.00082,0.00107,37.8,38.5,19,148,0,45.7,11.84,0.00,0.00
15min,AgWx,beryljct,423,10JAN2018:11:30:00,43.6,13.21,42.1,42.3,42.3,42.6,42.1,82,83,78,0.763,37.1,37.8,36.1,7.563,6.3,205,26,10.2,0.00081,0.00100,38.0,38.5,19,149,0,47.5,11.84,0.00,0.00
15min,AgWx,beryljct,423,10JAN2018:11:45:00,44.2,13.74,43.8,43.9,42.9,44.0,42.0,82,83,78,0.766,37.7,38.4,37.1,3.179,6.1,205,29,13.0,0.00112,0.00133,38.2,38.5,19,246,0,47.8,11.84,0.00,0.00
15min,AgWx,beryljct,423,10JAN2018:12:00:00,45.7,14.04,44.6,44.7,44.3,45.0,43.8,77,80,73,0.753,37.5,38.6,36.5,10.98,7.4,247,21,13.2,0.00159,0.00189,38.5,38.5,19,371,0,48.5,11.84,0.00,0.00
15min,AgWx,beryljct,423,10JAN2018:12:15:00,47.6,14.22,45.9,46.4,45.5,46.5,44.7,75,79,72,0.766,38.2,39.5,36.6,14.1,11.7,255,13,15.3,0.00225,0.00269,38.7,38.5,19,580,0,50.0,11.84,0.00,0.00
15min,AgWx,beryljct,423,10JAN2018:12:30:00,49.1,14.24,46.2,46.7,46.0,46.8,45.3,73,76,70,0.758,37.7,39.4,36.6,11.29,12.8,272,9.4,17.3,0.00200,0.00249,39.2,38.5,19,494,0,50.7,11.84,0.00,0.00
15min,AgWx,beryljct,423,10JAN2018:12:45:00,50.3,13.44,45.2,45.4,46.0,46.7,45.4,71,76,67,0.767,37.2,38.7,35.8,7.497,9.1,268,27,14.5,0.00145,0.00185,39.6,38.6,19,283,0,51.6,11.84,0.00,0.00
15min,AgWx,beryljct,423,10JAN2018:13:00:00,50.8,13.96,46.6,47.1,46.8,47.8,45.3,71,77,66,0.787,37.9,39.0,36.4,9.38,11.0,261,17,15.6,0.00217,0.00267,40.2,38.6,19,518,0,52.9,11.84,0.00,0.00
15min,AgWx,beryljct,423,10JAN2018:13:15:00,50.8,13.55,45.6,45.7,45.9,47.1,45.5,72,75,70,0.752,37.3,38.3,36.3,12.78,10.0,265,10,14.4,0.00122,0.00163,40.6,38.6,19,216,0,50.7,11.84,0.00,0.00
15min,AgWx,beryljct,423,10JAN2018:13:30:00,50.3,13.5,45.4,45.7,45.9,46.7,45.5,71,73,67,0.748,37.0,37.6,35.8,14.51,12.0,252,10,15.6,0.00139,0.00186,41.0,38.6,19,270,0,49.1,11.84,0.00,0.00
15min,AgWx,beryljct,423,10JAN2018:13:45:00,49.7,13.35,45.4,45.6,45.7,46.0,45.4,71,77,65,0.768,36.9,39.0,34.8,6.555,9.6,235,12,16.2,0.00103,0.00143,41.3,38.7,19,154,0,49.0,11.84,0.00,0.00
15min,AgWx,beryljct,423,10JAN2018:14:00:00,49.1,13.24,45.1,45.1,45.5,45.9,45.1,72,75,69,0.728,36.8,38.1,36.0,4.647,7.0,234,11,10.7,0.00067,0.00097,41.5,38.7,19,68,0,48.2,11.83,0.00,0.00
15min,AgWx,beryljct,423,10JAN2018:14:15:00,48.4,13.18,44.9,45.3,45.2,45.4,45.1,71,73,69,0.737,36.6,37.2,35.8,6.401,7.7,245,9.2,12.1,0.00054,0.00085,41.7,38.8,19,33,0,46.9,11.84,0.00,0.00
15min,AgWx,beryljct,423,10JAN2018:14:30:00,47.7,13.16,44.6,44.8,44.8,45.4,44.5,75,77,71,0.755,37.3,37.8,36.2,5.327,7.6,217,18,11.0,0.00052,0.00079,41.8,38.9,19,40,0,46.7,11.84,0.00,0.00
15min,AgWx,beryljct,423,10JAN2018:14:45:00,47.2,13.15,42.8,43.1,44.4,45.1,43.0,78,83,75,0.784,38.0,38.7,37.3,6.818,7.7,188,13,13.0,0.00049,0.00073,41.8,39.0,19,45,0,46.3,11.83,0.00,0.00
15min,AgWx,beryljct,423,10JAN2018:15:00:00,46.5,13.2,42.4,42.5,42.6,43.1,42.3,83,83,83,0.763,37.7,38.3,37.4,13.85,11.0,180,12,14.7,0.00054,0.00077,41.6,39.0,19,82,0,45.5,11.83,0.00,0.00
15min,AgWx,beryljct,423,10JAN2018:15:15:00,46.0,13.23,42.4,42.5,42.4,42.7,42.2,83,83,83,0.764,37.6,37.8,37.3,13.2,10.4,194,16,14.1,0.00054,0.00076,41.6,39.1,19,116,0,46.1,11.83,0.00,0.00
15min,AgWx,beryljct,423,10JAN2018:15:30:00,45.8,14.11,46.1,45.6,42.9,45.6,42.0,83,83,74,0.770,37.9,39.3,37.2,12.61,13.0,205,21,17.4,0.00083,0.00110,41.5,39.2,19,246,0,46.7,11.84,0.00,0.00
15min,AgWx,beryljct,423,10JAN2018:15:45:00,47.2,14.18,47.9,48.3,48.2,48.8,46.1,65,73,62,0.734,37.0,38.7,35.7,16.9,15.1,255,18,24.2,0.00153,0.00219,41.6,39.3,19,298,0,49.9,11.84,0.00,0.00
15min,AgWx,beryljct,423,10JAN2018:16:00:00,48.5,14.17,48.4,48.7,48.5,48.8,48.2,64,66,62,0.755,37.0,37.8,36.2,7.804,12.5,269,12,18.7,0.00136,0.00196,41.6,39.4,19,256,0,50.2,11.84,0.00,0.00
15min,AgWx,beryljct,423,10JAN2018:16:15:00,49.5,14.26,48.5,49.0,48.6,49.0,48.2,64,66,63,0.746,37.1,37.9,36.4,8.18,9.6,280,8.8,13.0,0.00114,0.00164,41.7,39.5,19,222,0,50.4,11.84,0.00,0.00
15min,AgWx,beryljct,423,10JAN2018:16:30:00,50.4,13.71,48.3,48.7,48.9,49.2,48.7,63,65,62,0.725,37.1,37.8,36.3,6.752,7.8,295,11,9.9,0.00095,0.00140,41.9,39.5,19,188,0,51.0,11.83,0.00,0.00
15min,AgWx,beryljct,423,10JAN2018:16:45:00,50.7,13.6,47.7,48.1,48.4,48.9,47.8,63,66,60,0.722,36.3,37.5,35.3,11.68,10.0,301,9.3,15.8,0.00049,0.00057,42.0,39.6,19,104,0,50.0,11.84,0.00,0.00
15min,AgWx,beryljct,423,10JAN2018:17:00:00,50.6,13.69,46.8,47.0,47.8,48.2,46.9,65,68,62,0.730,36.5,37.3,35.5,12.71,11.3,297,8.5,14.9,0.00049,0.00056,42.0,39.7,19,121,0,49.0,11.84,0.00,0.00
15min,AgWx,beryljct,423,10JAN2018:17:15:00,49.6,13.25,45.4,45.6,46.0,47.0,45.5,70,72,67,0.743,36.8,37.0,36.3,7.629,10.0,284,7.0,13.2,0.00031,0.00036,42.0,39.8,19,27,0,45.9,11.83,0.00,0.00
15min,AgWx,beryljct,423,10JAN2018:17:30:00,48.0,13.16,43.5,43.8,44.6,45.5,43.5,74,77,72,0.748,36.8,37.1,36.4,3.288,5.1,308,14,9.1,0.00019,0.00024,41.9,39.8,19,10,0,43.4,11.83,0.00,0.00
15min,AgWx,beryljct,423,10JAN2018:17:45:00,46.2,13.13,42.6,42.6,43.1,43.7,42.4,78,79,77,0.732,36.7,37.0,36.2,4.867,4.9,271,7.3,6.2,0.00014,0.00018,41.9,39.9,19,3,0,41.9,11.83,0.00,0.00
15min,AgWx,beryljct,423,10JAN2018:18:00:00,44.7,13.11,42.6,42.6,42.3,42.7,41.7,79,80,77,0.710,36.3,36.7,35.8,5.875,3.8,264,12,6.4,0.00011,0.00015,41.6,39.9,19,1,0,40.4,11.83,0.00,0.00
15min,AgWx,beryljct,423,10JAN2018:18:15:00,43.5,13.08,41.6,41.5,42.0,42.7,41.4,77,79,76,0.676,35.4,35.8,34.5,8.37,7.1,285,9.5,8.4,0.00016,0.00020,41.4,40.0,19,0,0,40.9,11.83,0.00,0.00
15min,AgWx,beryljct,423,10JAN2018:18:30:00,42.5,13.08,41.4,41.5,41.4,41.6,41.0,75,77,73,0.653,34.1,34.7,33.6,4.647,6.2,290,5.5,8.1,0.00016,0.00021,41.2,40.0,19,0,0,40.2,11.83,0.00,0.00
15min,AgWx,beryljct,423,10JAN2018:18:45:00,41.6,13.07,41.8,42.0,41.0,42.8,39.2,75,81,69,0.645,33.7,34.4,33.0,5.393,4.4,38,46,11.1,0.00014,0.00018,40.9,40.1,19,0,0,39.2,11.83,0.00,0.00
15min,AgWx,beryljct,423,10JAN2018:19:00:00,40.9,13.06,39.6,39.5,40.7,42.0,39.5,74,75,71,0.618,32.9,33.6,32.3,6.818,5.8,58,16,9.9,0.00017,0.00021,40.6,40.2,19,0,0,39.3,11.83,0.00,0.00
15min,AgWx,beryljct,423,10JAN2018:19:15:00,40.0,13.05,37.7,37.5,39.1,40.7,37.4,74,79,70,0.598,31.6,32.4,30.8,4.669,3.8,352,24,8.1,0.00012,0.00017,40.3,40.2,19,0,0,37.4,11.83,0.00,0.00
15min,AgWx,beryljct,423,10JAN2018:19:30:00,38.8,13.04,36.6,36.7,37.2,38.1,36.5,79,80,77,0.590,31.3,31.9,30.8,1.184,3.1,311,12,4.5,0.00009,0.00012,40.1,40.2,19,0,0,35.6,11.83,0.00,0.00
15min,AgWx,beryljct,423,10JAN2018:19:45:00,37.7,13.02,35.4,35.5,36.3,36.8,35.5,80,81,79,0.566,30.6,31.2,29.8,3.88,3.3,332,11,4.7,0.00008,0.00011,39.8,40.2,19,0,0,35.5,11.83,0.00,0.00
15min,AgWx,beryljct,423,10JAN2018:20:00:00,36.9,13.02,37.6,37.9,36.2,38.1,34.3,82,84,81,0.641,31.3,33.2,29.6,3.902,4.9,0.7,31,10.2,0.00009,0.00012,39.5,40.2,19,0,0,36.0,11.83,0.00,0.00
15min,AgWx,beryljct,423,10JAN2018:20:15:00,36.2,12.99,35.3,35.3,36.5,37.9,35.3,83,84,83,0.581,32.0,33.2,30.8,2.346,2.0,22,79,3.9,0.00005,0.00007,39.2,40.3,19,0,0,35.4,11.83,0.00,0.00
15min,AgWx,beryljct,423,10JAN2018:20:30:00,35.6,12.99,35.9,36.2,35.9,36.5,35.2,83,83,83,0.597,31.2,31.7,30.5,0.965,2.1,155,60,3.9,0.00005,0.00008,38.8,40.3,19,0,0,35.6,11.83,0.00,0.00
15min,AgWx,beryljct,423,10JAN2018:20:45:00,35.0,12.98,35.8,36.0,35.8,36.1,35.2,83,83,83,0.590,31.0,31.4,30.5,1.754,1.1,298,36,2.4,0.00003,0.00005,38.6,40.3,19,0,0,35.3,11.84,0.00,0.00
15min,AgWx,beryljct,423,10JAN2018:21:00:00,34.6,12.97,35.2,35.5,35.8,36.3,34.9,83,83,82,0.581,31.1,31.5,30.2,2.236,1.3,250,12,4.2,0.00004,0.00006,38.3,40.2,19,0,0,35.4,11.83,0.00,0.00
15min,AgWx,beryljct,423,10JAN2018:21:15:00,34.1,12.96,34.2,34.5,34.8,35.7,34.0,83,83,82,0.559,30.1,30.9,29.3,1.359,1.6,222,21,3.2,0.00004,0.00006,38.1,40.3,19,0,0,35.5,11.83,0.00,0.00
15min,AgWx,beryljct,423,10JAN2018:21:30:00,33.6,12.95,35.2,35.6,34.5,35.7,33.7,83,83,82,0.580,29.8,30.9,29.1,1.381,0.7,101,59,3.2,0.00002,0.00004,37.7,40.2,19,0,0,35.8,11.83,0.00,0.00
15min,AgWx,beryljct,423,10JAN2018:21:45:00,33.4,12.96,35.8,36.2,35.9,36.3,35.4,82,83,82,0.596,31.1,31.5,30.6,2.039,1.4,22,23,3.4,0.00004,0.00006,37.5,40.2,19,0,0,35.7,11.84,0.00,0.00
15min,AgWx,beryljct,423,10JAN2018:22:00:00,33.4,12.95,34.5,34.8,35.8,36.5,34.6,83,83,83,0.565,31.1,31.7,30.0,2.938,2.8,345,29,5.7,0.00006,0.00009,37.4,40.2,19,0,0,35.5,11.84,0.00,0.00
15min,AgWx,beryljct,423,10JAN2018:22:15:00,33.2,12.93,33.8,33.8,34.4,34.9,33.7,83,83,83,0.543,29.7,30.2,29.1,2.959,3.0,314,6.7,4.1,0.00006,0.00009,37.3,40.1,19,0,0,35.4,11.84,0.00,0.00
15min,AgWx,beryljct,423,10JAN2018:22:30:00,33.0,12.92,34.1,34.3,33.9,35.0,33.4,83,83,82,0.553,29.2,30.2,28.7,4.494,4.0,339,22,7.1,0.00007,0.00010,37.1,40.1,19,0,0,35.6,11.84,0.00,0.00
15min,AgWx,beryljct,423,10JAN2018:22:45:00,32.8,12.91,32.7,33.0,33.7,34.6,32.7,83,83,83,0.526,29.0,29.8,28.1,3.442,3.4,345,18,4.9,0.00007,0.00009,36.9,40.0,19,0,0,35.5,11.84,0.00,0.00
15min,AgWx,beryljct,423,10JAN2018:23:00:00,32.5,12.91,33.6,33.5,33.0,33.5,32.3,83,83,82,0.537,28.4,28.8,27.7,3.727,3.4,304,7.8,5.5,0.00007,0.00009,36.8,40.0,19,0,0,35.6,11.84,0.00,0.00
15min,AgWx,beryljct,423,10JAN2018:23:15:00,32.3,12.9,32.7,33.0,33.3,33.7,32.7,83,83,83,0.527,28.6,29.0,28.1,2.258,3.0,329,16,4.6,0.00006,0.00009,36.7,39.9,19,0,0,35.7,11.84,0.00,0.00
15min,AgWx,beryljct,423,10JAN2018:23:30:00,32.0,12.9,33.4,33.5,33.3,34.0,32.4,83,83,83,0.537,28.6,29.3,27.8,1.25,3.1,299,11,4.8,0.00006,0.00009,36.6,39.9,19,0,0,35.7,11.84,0.00,0.00
15min,AgWx,beryljct,423,10JAN2018:23:45:00,31.8,12.89,32.2,32.7,32.8,33.6,32.2,83,83,83,0.520,28.2,28.9,27.6,3.508,3.8,311,13,5.9,0.00007,0.00009,36.4,39.8,20,0,0,35.6,11.84,0.00,0.00
15min,AgWx,bigpiney,439,10JAN2018:00:00:00,30.8,12.81,28.4,27.8,27.5,27.8,27.1,94,95,93,0.487,25.9,26.4,25.3,3.573,1.7,7.0,26,3.9,-0.00002,-0.00002,31.1,32.1,25,0,0,0.0,.,0.00,0.00
15min,AgWx,bigpiney,439,10JAN2018:00:15:00,30.7,12.81,28.5,28.0,28.0,28.2,27.8,94,95,94,0.488,26.6,26.8,26.4,2.302,2.4,323,7.5,3.6,-0.00001,-0.00001,31.1,32.1,25,0,0,0.0,.,0.00,0.00
15min,AgWx,bigpiney,439,10JAN2018:00:30:00,30.8,12.8,28.7,28.3,28.1,28.4,28.0,94,94,94,0.494,26.7,26.9,26.5,2.872,3.1,310,9.4,4.0,-0.00001,-0.00001,31.1,32.0,25,0,0,0.0,.,0.00,0.00
15min,AgWx,bigpiney,439,10JAN2018:00:45:00,30.8,12.79,29.0,28.4,28.3,28.5,28.2,94,94,94,0.498,26.8,27.1,26.6,3.858,3.0,312,9.3,4.6,-0.00001,-0.00001,31.1,32.1,25,0,0,0.0,.,0.00,0.00
15min,AgWx,bigpiney,439,10JAN2018:01:00:00,31.0,12.79,29.5,29.1,28.7,29.1,28.4,94,95,94,0.512,27.3,27.7,27.0,0.373,2.7,297,29,5.2,-0.00001,-0.00001,31.1,32.1,25,0,0,0.0,.,0.00,0.00
15min,AgWx,bigpiney,439,10JAN2018:01:15:00,31.1,12.78,29.1,28.9,29.1,29.3,28.7,94,94,94,0.506,27.6,27.9,27.1,1.951,1.1,307,39,2.8,-0.00003,-0.00004,31.1,32.0,25,0,0,0.0,.,0.00,0.00
15min,AgWx,bigpiney,439,10JAN2018:01:30:00,31.1,12.76,28.4,28.1,28.2,28.8,28.0,94,94,94,0.489,26.7,27.4,26.5,1.184,1.1,194,18,2.8,-0.00003,-0.00004,31.1,32.0,25,0,0,0.0,.,0.00,0.00
15min,AgWx,bigpiney,439,10JAN2018:01:45:00,31.1,12.76,28.2,27.8,28.0,28.2,27.8,94,94,94,0.483,26.5,26.8,26.2,0,0.9,209,19,2.7,-0.00003,-0.00004,31.1,32.1,25,0,0,0.0,.,0.00,0.00
15min,AgWx,bigpiney,439,10JAN2018:02:00:00,31.0,12.75,28.2,27.7,27.8,28.2,27.5,94,95,94,0.483,26.3,26.9,26.0,0.438,1.5,292,19,4.1,-0.00002,-0.00003,31.1,32.1,25,0,0,0.0,.,0.00,0.00
15min,AgWx,bigpiney,439,10JAN2018:02:15:00,30.8,12.74,27.7,27.3,27.9,28.3,27.3,95,95,94,0.473,26.6,27.0,25.8,1.863,2.1,316,7.2,4.5,-0.00002,-0.00002,31.1,32.1,25,0,0,0.0,.,0.00,0.00
15min,AgWx,bigpiney,439,10JAN2018:02:30:00,30.6,12.73,27.4,27.2,27.3,27.9,26.8,95,95,94,0.475,26.0,26.6,25.3,1.644,1.1,251,41,2.5,-0.00003,-0.00004,31.1,32.1,25,0,0,0.0,.,0.00,0.00
15min,AgWx,bigpiney,439,10JAN2018:02:45:00,30.4,12.72,27.9,27.5,27.3,27.6,27.0,95,95,95,0.485,26.1,26.4,25.7,3.113,1.9,224,29,3.7,-0.00002,-0.00002,31.1,32.1,25,0,0,0.0,.,0.00,0.00
15min,AgWx,bigpiney,439,10JAN2018:03:00:00,30.5,12.72,29.1,28.6,27.9,28.6,27.5,96,96,95,0.511,26.9,27.7,26.3,1.469,1.6,209,54,3.7,-0.00002,-0.00003,31.1,32.1,25,0,0,0.0,.,0.00,0.00
15min,AgWx,bigpiney,439,10JAN2018:03:15:00,30.7,12.7,29.1,28.8,28.9,29.1,28.6,96,96,96,0.517,28.0,28.2,27.6,2.565,2.1,46,82,4.1,-0.00002,-0.00003,31.1,32.1,25,0,0,0.0,.,0.00,0.00
15min,AgWx,bigpiney,439,10JAN2018:03:30:00,31.0,12.69,29.4,28.9,28.9,29.0,28.8,96,96,96,0.518,27.9,28.1,27.9,2.192,1.0,321,46,4.2,-0.00003,-0.00004,31.1,32.1,25,0,0,0.0,.,0.00,0.00
15min,AgWx,bigpiney,439,10JAN2018:03:45:00,31.1,12.69,28.5,28.2,28.4,28.9,28.2,96,96,96,0.505,27.5,28.0,27.3,3.179,1.6,58,56,3.8,-0.00002,-0.00003,31.1,32.0,25,0,0,0.0,.,0.00,0.00
15min,AgWx,bigpiney,439,10JAN2018:04:00:00,31.2,12.69,28.6,28.4,28.3,28.4,28.1,96,96,96,0.507,27.3,27.5,27.2,1.622,2.6,325,78,5.3,-0.00002,-0.00002,31.1,32.1,25,0,0,0.0,.,0.00,0.00
15min,AgWx,bigpiney,439,10JAN2018:04:15:00,31.2,12.69,28.6,28.4,28.2,28.4,28.0,96,96,96,0.507,27.3,27.5,27.1,3.201,2.7,7.2,70,6.0,-0.00002,-0.00002,31.1,32.1,25,0,0,0.0,.,0.00,0.00
15min,AgWx,bigpiney,439,10JAN2018:04:30:00,31.1,12.69,33.2,32.4,30.2,32.4,28.2,97,97,96,0.597,29.3,31.4,27.3,3.157,3.3,348,93,5.8,-0.00001,-0.00002,31.1,32.0,25,0,0,0.0,.,0.00,0.00
15min,AgWx,bigpiney,439,10JAN2018:04:45:00,31.5,12.66,33.5,33.4,32.7,33.4,32.2,93,96,91,0.587,30.9,31.6,30.1,8.2,4.7,151,21,10.6,0.00001,0.00001,31.1,32.0,25,0,0,0.0,.,0.00,0.00
15min,AgWx,bigpiney,439,10JAN2018:05:00:00,32.0,12.68,32.9,32.7,33.0,33.5,32.6,91,91,90,0.569,30.5,31.1,30.1,11.18,6.9,129,11,11.2,0.00003,0.00004,31.1,32.1,25,0,0,0.0,.,0.00,0.00
15min,AgWx,bigpiney,439,10JAN2018:05:15:00,32.4,12.66,29.0,31.9,32.9,33.4,31.9,90,91,89,0.540,30.4,31.0,29.0,3.508,7.8,126,30,13.1,0.00004,0.00004,31.1,32.1,25,0,0,0.0,.,0.00,0.00
15min,AgWx,bigpiney,439,10JAN2018:05:30:00,32.5,12.66,31.5,29.7,30.7,32.2,28.9,91,94,85,0.505,28.3,30.5,25.7,0,2.3,244,64,6.5,-0.00001,-0.00000,31.1,32.1,25,0,0,0.0,.,0.00,0.00
15min,AgWx,bigpiney,439,10JAN2018:05:45:00,32.2,12.66,27.7,27.5,29.7,31.9,27.5,91,94,88,0.466,27.5,30.4,25.2,4.406,4.8,296,42,8.8,0.00001,0.00002,31.1,32.1,25,0,0,0.0,.,0.00,0.00
15min,AgWx,bigpiney,439,10JAN2018:06:00:00,31.8,12.66,27.4,26.8,28.0,31.6,26.5,93,95,88,0.466,26.1,30.2,24.6,3.749,5.3,309,34,8.7,0.00001,0.00001,31.1,32.0,25,0,0,0.0,.,0.00,0.00
15min,AgWx,bigpiney,439,10JAN2018:06:15:00,31.4,12.66,29.2,28.6,27.7,28.6,26.8,95,96,95,0.507,26.6,27.5,25.5,5.371,6.2,301,9.1,8.9,0.00000,0.00000,31.1,32.1,25,0,0,0.0,.,0.00,0.00
15min,AgWx,bigpiney,439,10JAN2018:06:30:00,31.3,12.65,31.3,30.7,29.5,30.7,28.5,95,96,94,0.547,28.2,29.3,27.4,5.941,6.5,314,16,8.3,0.00000,0.00001,31.1,32.1,25,0,0,0.0,.,0.00,0.00
15min,AgWx,bigpiney,439,10JAN2018:06:45:00,31.6,12.66,31.3,30.8,30.6,30.8,30.4,94,95,93,0.543,29.0,29.4,28.7,3.266,3.6,315,14,7.3,-0.00000,-0.00000,31.1,32.1,25,0,0,0.0,.,0.00,0.00
15min,AgWx,bigpiney,439,10JAN2018:07:00:00,31.9,12.65,31.9,31.5,31.4,31.7,30.7,93,94,91,0.543,29.5,30.1,29.1,1.929,2.3,298,20,3.7,-0.00001,-0.00001,31.1,32.1,25,0,73,0.0,.,0.00,0.00
15min,AgWx,bigpiney,439,10JAN2018:07:15:00,31.9,12.65,30.2,30.0,31.1,31.5,29.8,91,92,90,0.516,28.8,29.2,27.3,4.604,2.5,326,15,5.2,-0.00000,-0.00000,31.1,32.0,25,0,100,0.0,.,0.00,0.00
15min,AgWx,bigpiney,439,10JAN2018:07:30:00,31.6,12.65,28.4,28.2,28.8,30.0,27.4,93,94,91,0.490,27.0,28.0,25.1,2.74,3.6,296,26,4.7,0.00000,0.00000,31.1,32.1,25,0,100,0.0,.,0.00,0.00
15min,AgWx,bigpiney,439,10JAN2018:07:45:00,31.1,12.64,29.7,28.6,27.9,28.6,26.7,93,95,91,0.503,26.2,27.3,24.5,2.718,2.6,228,46,3.6,-0.00001,-0.00001,31.1,32.1,25,1,100,0.0,.,0.00,0.00